Year,Month,Day,Hour,Minute,Value (Times are PST for temperature in C)
2007,04,06,00,00,11.20
2007,04,06,00,01,11.20
2007,04,06,00,02,11.20
2007,04,06,00,03,11.20
2007,04,06,00,04,11.20
2007,04,06,00,05,11.20
2007,04,06,00,06,11.20
2007,04,06,00,07,11.20
2007,04,06,00,08,11.20
2007,04,06,00,09,11.30
2007,04,06,00,10,11.30
2007,04,06,00,11,11.30
2007,04,06,00,12,11.30
2007,04,06,00,13,11.30
2007,04,06,00,14,11.30
2007,04,06,00,15,11.30
2007,04,06,00,16,11.30
2007,04,06,00,17,11.30
2007,04,06,00,18,11.30
2007,04,06,00,19,11.40
2007,04,06,00,20,11.40
2007,04,06,00,21,11.40
2007,04,06,00,22,11.40
2007,04,06,00,23,11.40
2007,04,06,00,24,11.40
2007,04,06,00,25,11.40
2007,04,06,00,26,11.40
2007,04,06,00,27,11.50
2007,04,06,00,28,11.60
2007,04,06,00,29,11.60
2007,04,06,00,30,11.60
2007,04,06,00,31,11.60
2007,04,06,00,32,11.60
2007,04,06,00,33,11.60
2007,04,06,00,34,11.60
2007,04,06,00,35,11.60
2007,04,06,00,36,11.40
2007,04,06,00,37,11.40
2007,04,06,00,38,11.40
2007,04,06,00,39,11.40
2007,04,06,00,40,11.40
2007,04,06,00,41,11.40
2007,04,06,00,42,11.40
2007,04,06,00,43,11.40
2007,04,06,00,44,11.40
2007,04,06,00,45,11.40
2007,04,06,00,46,11.40
2007,04,06,00,47,11.40
2007,04,06,00,48,11.40
2007,04,06,00,49,11.40
2007,04,06,00,50,11.40
2007,04,06,00,51,11.30
2007,04,06,00,52,11.30
2007,04,06,00,53,11.30
2007,04,06,00,54,11.30
2007,04,06,00,55,11.20
2007,04,06,00,56,11.20
2007,04,06,00,57,11.20
2007,04,06,00,58,11.20
2007,04,06,00,59,11.20
2007,04,06,01,00,11.10
2007,04,06,01,01,11.10
2007,04,06,01,02,11.10
2007,04,06,01,03,11.10
2007,04,06,01,04,11.10
2007,04,06,01,05,11.10
2007,04,06,01,06,11.10
2007,04,06,01,07,11.10
2007,04,06,01,08,11.10
2007,04,06,01,09,11.10
2007,04,06,01,10,11.10
2007,04,06,01,11,11.10
2007,04,06,01,12,11.10
2007,04,06,01,13,11.20
2007,04,06,01,14,11.20
2007,04,06,01,15,11.20
2007,04,06,01,16,11.20
2007,04,06,01,17,11.20
2007,04,06,01,18,11.20
2007,04,06,01,19,11.20
2007,04,06,01,20,11.20
2007,04,06,01,21,11.20
2007,04,06,01,22,11.20
2007,04,06,01,23,11.20
2007,04,06,01,24,11.10
2007,04,06,01,25,11.10
2007,04,06,01,26,11.10
2007,04,06,01,27,11.10
2007,04,06,01,28,11.10
2007,04,06,01,29,11.10
2007,04,06,01,30,11.10
2007,04,06,01,31,11.10
2007,04,06,01,32,11.10
2007,04,06,01,33,11.10
2007,04,06,01,34,11.20
2007,04,06,01,35,11.20
2007,04,06,01,36,11.20
2007,04,06,01,37,11.30
2007,04,06,01,38,11.30
2007,04,06,01,39,11.40
2007,04,06,01,40,11.40
2007,04,06,01,41,11.40
2007,04,06,01,42,11.30
2007,04,06,01,43,11.30
2007,04,06,01,44,11.30
2007,04,06,01,45,11.20
2007,04,06,01,46,11.20
2007,04,06,01,47,11.20
2007,04,06,01,48,11.20
2007,04,06,01,49,11.20
2007,04,06,01,50,11.30
2007,04,06,01,51,11.30
2007,04,06,01,52,11.30
2007,04,06,01,53,11.30
2007,04,06,01,54,11.30
2007,04,06,01,55,11.30
2007,04,06,01,56,11.30
2007,04,06,01,57,11.30
2007,04,06,01,58,11.30
2007,04,06,01,59,11.20
2007,04,06,02,00,11.20
2007,04,06,02,01,11.20
2007,04,06,02,02,11.30
2007,04,06,02,03,11.30
2007,04,06,02,04,11.30
2007,04,06,02,05,11.30
2007,04,06,02,06,11.40
2007,04,06,02,07,11.40
2007,04,06,02,08,11.30
2007,04,06,02,09,11.30
2007,04,06,02,10,11.30
2007,04,06,02,11,11.30
2007,04,06,02,12,11.30
2007,04,06,02,13,11.30
2007,04,06,02,14,11.20
2007,04,06,02,15,11.20
2007,04,06,02,16,11.10
2007,04,06,02,17,11.10
2007,04,06,02,18,11.10
2007,04,06,02,19,11.10
2007,04,06,02,20,11.10
2007,04,06,02,21,11.10
2007,04,06,02,22,11.10
2007,04,06,02,23,11.10
2007,04,06,02,24,11.10
2007,04,06,02,25,11.10
2007,04,06,02,26,11.10
2007,04,06,02,27,11.10
2007,04,06,02,28,11.10
2007,04,06,02,29,11.10
2007,04,06,02,30,11.10
2007,04,06,02,31,11.00
2007,04,06,02,32,10.90
2007,04,06,02,33,10.90
2007,04,06,02,34,10.90
2007,04,06,02,35,10.90
2007,04,06,02,36,10.90
2007,04,06,02,37,10.90
2007,04,06,02,38,10.90
2007,04,06,02,39,10.90
2007,04,06,02,40,10.90
2007,04,06,02,41,10.90
2007,04,06,02,42,10.90
2007,04,06,02,43,10.90
2007,04,06,02,44,10.90
2007,04,06,02,45,10.90
2007,04,06,02,46,10.90
2007,04,06,02,47,10.80
2007,04,06,02,48,10.80
2007,04,06,02,49,10.80
2007,04,06,02,50,10.80
2007,04,06,02,51,10.80
2007,04,06,02,52,10.80
2007,04,06,02,53,10.80
2007,04,06,02,54,10.80
2007,04,06,02,55,10.80
2007,04,06,02,56,10.80
2007,04,06,02,57,10.80
2007,04,06,02,58,10.80
2007,04,06,02,59,10.80
2007,04,06,03,00,10.80
2007,04,06,03,01,10.80
2007,04,06,03,02,10.80
2007,04,06,03,03,10.80
2007,04,06,03,04,10.80
2007,04,06,03,05,10.80
2007,04,06,03,06,10.80
2007,04,06,03,07,10.80
2007,04,06,03,08,10.80
2007,04,06,03,09,10.70
2007,04,06,03,10,10.70
2007,04,06,03,11,10.70
2007,04,06,03,12,10.70
2007,04,06,03,13,10.70
2007,04,06,03,14,10.70
2007,04,06,03,15,10.70
2007,04,06,03,16,10.70
2007,04,06,03,17,10.70
2007,04,06,03,18,10.70
2007,04,06,03,19,10.70
2007,04,06,03,20,10.70
2007,04,06,03,21,10.70
2007,04,06,03,22,10.70
2007,04,06,03,23,10.70
2007,04,06,03,24,10.70
2007,04,06,03,25,10.70
2007,04,06,03,26,10.70
2007,04,06,03,27,10.70
2007,04,06,03,28,10.70
2007,04,06,03,29,10.70
2007,04,06,03,30,10.70
2007,04,06,03,31,10.70
2007,04,06,03,32,10.70
2007,04,06,03,33,10.80
2007,04,06,03,34,10.80
2007,04,06,03,35,10.80
2007,04,06,03,36,10.80
2007,04,06,03,37,10.80
2007,04,06,03,38,10.80
2007,04,06,03,39,10.80
2007,04,06,03,40,10.80
2007,04,06,03,41,10.70
2007,04,06,03,42,10.70
2007,04,06,03,43,10.80
2007,04,06,03,44,10.80
2007,04,06,03,45,10.80
2007,04,06,03,46,10.70
2007,04,06,03,47,10.70
2007,04,06,03,48,10.70
2007,04,06,03,49,10.70
2007,04,06,03,50,10.70
2007,04,06,03,51,10.70
2007,04,06,03,52,10.70
2007,04,06,03,53,10.70
2007,04,06,03,54,10.70
2007,04,06,03,55,10.70
2007,04,06,03,56,10.70
2007,04,06,03,57,10.70
2007,04,06,03,58,10.70
2007,04,06,03,59,10.70
2007,04,06,04,00,10.70
2007,04,06,04,01,10.60
2007,04,06,04,02,10.60
2007,04,06,04,03,10.60
2007,04,06,04,04,10.60
2007,04,06,04,05,10.60
2007,04,06,04,06,10.60
2007,04,06,04,07,10.60
2007,04,06,04,08,10.60
2007,04,06,04,09,10.60
2007,04,06,04,10,10.60
2007,04,06,04,11,10.60
2007,04,06,04,12,10.60
2007,04,06,04,13,10.60
2007,04,06,04,14,10.60
2007,04,06,04,15,10.60
2007,04,06,04,16,10.60
2007,04,06,04,17,10.60
2007,04,06,04,18,10.60
2007,04,06,04,19,10.60
2007,04,06,04,20,10.60
2007,04,06,04,21,10.60
2007,04,06,04,22,10.60
2007,04,06,04,23,10.50
2007,04,06,04,24,10.40
2007,04,06,04,25,10.40
2007,04,06,04,26,10.40
2007,04,06,04,27,10.40
2007,04,06,04,28,10.40
2007,04,06,04,29,10.40
2007,04,06,04,30,10.40
2007,04,06,04,31,10.40
2007,04,06,04,32,10.40
2007,04,06,04,33,10.40
2007,04,06,04,34,10.40
2007,04,06,04,35,10.40
2007,04,06,04,36,10.40
2007,04,06,04,37,10.40
2007,04,06,04,38,10.40
2007,04,06,04,39,10.40
2007,04,06,04,40,10.40
2007,04,06,04,41,10.40
2007,04,06,04,42,10.40
2007,04,06,04,43,10.40
2007,04,06,04,44,10.40
2007,04,06,04,45,10.40
2007,04,06,04,46,10.40
2007,04,06,04,47,10.40
2007,04,06,04,48,10.50
2007,04,06,04,49,10.60
2007,04,06,04,50,10.50
2007,04,06,04,51,10.40
2007,04,06,04,52,10.40
2007,04,06,04,53,10.40
2007,04,06,04,54,10.40
2007,04,06,04,55,10.40
2007,04,06,04,56,10.40
2007,04,06,04,57,10.40
2007,04,06,04,58,10.40
2007,04,06,04,59,10.40
2007,04,06,05,00,10.40
2007,04,06,05,01,10.40
2007,04,06,05,02,10.40
2007,04,06,05,03,10.40
2007,04,06,05,04,10.40
2007,04,06,05,05,10.40
2007,04,06,05,06,10.40
2007,04,06,05,07,10.40
2007,04,06,05,08,10.40
2007,04,06,05,09,10.40
2007,04,06,05,10,10.40
2007,04,06,05,11,10.40
2007,04,06,05,12,10.40
2007,04,06,05,13,10.40
2007,04,06,05,14,10.40
2007,04,06,05,15,10.40
2007,04,06,05,16,10.40
2007,04,06,05,17,10.40
2007,04,06,05,18,10.40
2007,04,06,05,19,10.40
2007,04,06,05,20,10.40
2007,04,06,05,21,10.40
2007,04,06,05,22,10.40
2007,04,06,05,23,10.40
2007,04,06,05,24,10.40
2007,04,06,05,25,10.40
2007,04,06,05,26,10.40
2007,04,06,05,27,10.40
2007,04,06,05,28,10.40
2007,04,06,05,29,10.40
2007,04,06,05,30,10.40
2007,04,06,05,31,10.40
2007,04,06,05,32,10.40
2007,04,06,05,33,10.40
2007,04,06,05,34,10.40
2007,04,06,05,35,10.40
2007,04,06,05,36,10.40
2007,04,06,05,37,10.40
2007,04,06,05,38,10.40
2007,04,06,05,39,10.40
2007,04,06,05,40,10.40
2007,04,06,05,41,10.30
2007,04,06,05,42,10.30
2007,04,06,05,43,10.30
2007,04,06,05,44,10.30
2007,04,06,05,45,10.30
2007,04,06,05,46,10.30
2007,04,06,05,47,10.30
2007,04,06,05,48,10.30
2007,04,06,05,49,10.30
2007,04,06,05,50,10.30
2007,04,06,05,51,10.20
2007,04,06,05,52,10.20
2007,04,06,05,53,10.20
2007,04,06,05,54,10.20
2007,04,06,05,55,10.20
2007,04,06,05,56,10.10
2007,04,06,05,57,10.10
2007,04,06,05,58,10.10
2007,04,06,05,59,10.10
2007,04,06,06,00,10.10
2007,04,06,06,01,10.10
2007,04,06,06,02,10.10
2007,04,06,06,03,10.10
2007,04,06,06,04,10.10
2007,04,06,06,05,10.10
2007,04,06,06,06,10.20
2007,04,06,06,07,10.20
2007,04,06,06,08,10.20
2007,04,06,06,09,10.20
2007,04,06,06,10,10.30
2007,04,06,06,11,10.30
2007,04,06,06,12,10.30
2007,04,06,06,13,10.40
2007,04,06,06,14,10.40
2007,04,06,06,15,10.40
2007,04,06,06,16,10.40
2007,04,06,06,17,10.40
2007,04,06,06,18,10.40
2007,04,06,06,19,10.40
2007,04,06,06,20,10.40
2007,04,06,06,21,10.40
2007,04,06,06,22,10.40
2007,04,06,06,23,10.40
2007,04,06,06,24,10.40
2007,04,06,06,25,10.40
2007,04,06,06,26,10.40
2007,04,06,06,27,10.40
2007,04,06,06,28,10.40
2007,04,06,06,29,10.40
2007,04,06,06,30,10.40
2007,04,06,06,31,10.40
2007,04,06,06,32,10.40
2007,04,06,06,33,10.40
2007,04,06,06,34,10.40
2007,04,06,06,35,10.40
2007,04,06,06,36,10.40
2007,04,06,06,37,10.40
2007,04,06,06,38,10.40
2007,04,06,06,39,10.40
2007,04,06,06,40,10.40
2007,04,06,06,41,10.40
2007,04,06,06,42,10.40
2007,04,06,06,43,10.40
2007,04,06,06,44,10.40
2007,04,06,06,45,10.40
2007,04,06,06,46,10.40
2007,04,06,06,47,10.40
2007,04,06,06,48,10.40
2007,04,06,06,49,10.40
2007,04,06,06,50,10.40
2007,04,06,06,51,10.40
2007,04,06,06,52,10.40
2007,04,06,06,53,10.40
2007,04,06,06,54,10.40
2007,04,06,06,55,10.40
2007,04,06,06,56,10.40
2007,04,06,06,57,10.40
2007,04,06,06,58,10.40
2007,04,06,06,59,10.40
2007,04,06,07,00,10.40
2007,04,06,07,01,10.40
2007,04,06,07,02,10.40
2007,04,06,07,03,10.40
2007,04,06,07,04,10.40
2007,04,06,07,05,10.40
2007,04,06,07,06,10.50
2007,04,06,07,07,10.60
2007,04,06,07,08,10.60
2007,04,06,07,09,10.60
2007,04,06,07,10,10.60
2007,04,06,07,11,10.60
2007,04,06,07,12,10.60
2007,04,06,07,13,10.60
2007,04,06,07,14,10.60
2007,04,06,07,15,10.60
2007,04,06,07,16,10.60
2007,04,06,07,17,10.60
2007,04,06,07,18,10.60
2007,04,06,07,19,10.60
2007,04,06,07,20,10.60
2007,04,06,07,21,10.70
2007,04,06,07,22,10.70
2007,04,06,07,23,10.80
2007,04,06,07,24,10.90
2007,04,06,07,25,10.90
2007,04,06,07,26,11.00
2007,04,06,07,27,11.10
2007,04,06,07,28,11.10
2007,04,06,07,29,11.10
2007,04,06,07,30,11.10
2007,04,06,07,31,11.10
2007,04,06,07,32,11.10
2007,04,06,07,33,11.10
2007,04,06,07,34,11.10
2007,04,06,07,35,11.10
2007,04,06,07,36,11.10
2007,04,06,07,37,11.10
2007,04,06,07,38,11.10
2007,04,06,07,39,11.20
2007,04,06,07,40,11.20
2007,04,06,07,41,11.20
2007,04,06,07,42,11.20
2007,04,06,07,43,11.20
2007,04,06,07,44,11.20
2007,04,06,07,45,11.20
2007,04,06,07,46,11.20
2007,04,06,07,47,11.30
2007,04,06,07,48,11.30
2007,04,06,07,49,11.30
2007,04,06,07,50,11.40
2007,04,06,07,51,11.40
2007,04,06,07,52,11.40
2007,04,06,07,53,11.40
2007,04,06,07,54,11.40
2007,04,06,07,55,11.50
2007,04,06,07,56,11.60
2007,04,06,07,57,11.60
2007,04,06,07,58,11.60
2007,04,06,07,59,11.60
2007,04,06,08,00,11.70
2007,04,06,08,01,11.70
2007,04,06,08,02,11.80
2007,04,06,08,03,11.80
2007,04,06,08,04,11.80
2007,04,06,08,05,11.80
2007,04,06,08,06,11.90
2007,04,06,08,07,11.90
2007,04,06,08,08,12.00
2007,04,06,08,09,12.00
2007,04,06,08,10,12.10
2007,04,06,08,11,12.10
2007,04,06,08,12,12.20
2007,04,06,08,13,12.20
2007,04,06,08,14,12.20
2007,04,06,08,15,12.30
2007,04,06,08,16,12.30
2007,04,06,08,17,12.30
2007,04,06,08,18,12.30
2007,04,06,08,19,12.30
2007,04,06,08,20,12.30
2007,04,06,08,21,12.30
2007,04,06,08,22,12.30
2007,04,06,08,23,12.30
2007,04,06,08,24,12.30
2007,04,06,08,25,12.30
2007,04,06,08,26,12.30
2007,04,06,08,27,12.30
2007,04,06,08,28,12.40
2007,04,06,08,29,12.40
2007,04,06,08,30,12.50
2007,04,06,08,31,12.50
2007,04,06,08,32,12.50
2007,04,06,08,33,12.50
2007,04,06,08,34,12.50
2007,04,06,08,35,12.60
2007,04,06,08,36,12.60
2007,04,06,08,37,12.60
2007,04,06,08,38,12.70
2007,04,06,08,39,12.80
2007,04,06,08,40,12.80
2007,04,06,08,41,12.80
2007,04,06,08,42,12.80
2007,04,06,08,43,12.80
2007,04,06,08,44,12.80
2007,04,06,08,45,12.90
2007,04,06,08,46,13.00
2007,04,06,08,47,13.00
2007,04,06,08,48,13.00
2007,04,06,08,49,13.00
2007,04,06,08,50,13.10
2007,04,06,08,51,13.10
2007,04,06,08,52,13.10
2007,04,06,08,53,13.10
2007,04,06,08,54,13.20
2007,04,06,08,55,13.20
2007,04,06,08,56,13.20
2007,04,06,08,57,13.20
2007,04,06,08,58,13.30
2007,04,06,08,59,13.30
2007,04,06,09,00,13.30
2007,04,06,09,01,13.30
2007,04,06,09,02,13.40
2007,04,06,09,03,13.40
2007,04,06,09,04,13.40
2007,04,06,09,05,13.40
2007,04,06,09,06,13.40
2007,04,06,09,07,13.50
2007,04,06,09,08,13.50
2007,04,06,09,09,13.60
2007,04,06,09,10,13.70
2007,04,06,09,11,13.70
2007,04,06,09,12,13.70
2007,04,06,09,13,13.70
2007,04,06,09,14,13.70
2007,04,06,09,15,13.70
2007,04,06,09,16,13.70
2007,04,06,09,17,13.70
2007,04,06,09,18,13.70
2007,04,06,09,19,13.70
2007,04,06,09,20,13.70
2007,04,06,09,21,13.70
2007,04,06,09,22,13.70
2007,04,06,09,23,13.70
2007,04,06,09,24,13.70
2007,04,06,09,25,13.70
2007,04,06,09,26,13.70
2007,04,06,09,27,13.70
2007,04,06,09,28,13.80
2007,04,06,09,29,13.80
2007,04,06,09,30,13.90
2007,04,06,09,31,13.80
2007,04,06,09,32,13.80
2007,04,06,09,33,13.80
2007,04,06,09,34,13.80
2007,04,06,09,35,13.70
2007,04,06,09,36,13.70
2007,04,06,09,37,13.70
2007,04,06,09,38,13.70
2007,04,06,09,39,13.80
2007,04,06,09,40,13.90
2007,04,06,09,41,14.00
2007,04,06,09,42,14.00
2007,04,06,09,43,14.00
2007,04,06,09,44,14.00
2007,04,06,09,45,13.90
2007,04,06,09,46,14.00
2007,04,06,09,47,14.00
2007,04,06,09,48,14.00
2007,04,06,09,49,14.00
2007,04,06,09,50,14.00
2007,04,06,09,51,14.00
2007,04,06,09,52,14.00
2007,04,06,09,53,14.00
2007,04,06,09,54,14.00
2007,04,06,09,55,14.00
2007,04,06,09,56,14.00
2007,04,06,09,57,14.00
2007,04,06,09,58,14.00
2007,04,06,09,59,14.00
2007,04,06,10,00,13.90
2007,04,06,10,01,13.90
2007,04,06,10,02,13.90
2007,04,06,10,03,13.90
2007,04,06,10,04,13.90
2007,04,06,10,05,13.90
2007,04,06,10,06,13.90
2007,04,06,10,07,13.90
2007,04,06,10,08,13.90
2007,04,06,10,09,13.90
2007,04,06,10,10,13.90
2007,04,06,10,11,13.80
2007,04,06,10,12,13.80
2007,04,06,10,13,13.90
2007,04,06,10,14,13.90
2007,04,06,10,15,13.90
2007,04,06,10,16,13.90
2007,04,06,10,17,13.90
2007,04,06,10,18,13.90
2007,04,06,10,19,13.90
2007,04,06,10,20,13.90
2007,04,06,10,21,13.90
2007,04,06,10,22,14.00
2007,04,06,10,23,14.00
2007,04,06,10,24,14.10
2007,04,06,10,25,14.10
2007,04,06,10,26,14.20
2007,04,06,10,27,14.20
2007,04,06,10,28,14.20
2007,04,06,10,29,14.30
2007,04,06,10,30,14.40
2007,04,06,10,31,14.40
2007,04,06,10,32,14.40
2007,04,06,10,33,14.30
2007,04,06,10,34,14.30
2007,04,06,10,35,14.20
2007,04,06,10,36,14.20
2007,04,06,10,37,14.30
2007,04,06,10,38,14.40
2007,04,06,10,39,14.50
2007,04,06,10,40,14.60
2007,04,06,10,41,14.70
2007,04,06,10,42,14.80
2007,04,06,10,43,14.80
2007,04,06,10,44,14.80
2007,04,06,10,45,14.70
2007,04,06,10,46,14.70
2007,04,06,10,47,14.70
2007,04,06,10,48,14.70
2007,04,06,10,49,14.80
2007,04,06,10,50,14.80
2007,04,06,10,51,14.90
2007,04,06,10,52,15.00
2007,04,06,10,53,15.00
2007,04,06,10,54,15.00
2007,04,06,10,55,14.90
2007,04,06,10,56,14.90
2007,04,06,10,57,15.00
2007,04,06,10,58,15.10
2007,04,06,10,59,15.10
2007,04,06,11,00,15.20
2007,04,06,11,01,15.20
2007,04,06,11,02,15.20
2007,04,06,11,03,15.20
2007,04,06,11,04,15.20
2007,04,06,11,05,15.30
2007,04,06,11,06,15.30
2007,04,06,11,07,15.40
2007,04,06,11,08,15.50
2007,04,06,11,09,15.50
2007,04,06,11,10,15.60
2007,04,06,11,11,15.60
2007,04,06,11,12,15.60
2007,04,06,11,13,15.60
2007,04,06,11,14,15.60
2007,04,06,11,15,15.60
2007,04,06,11,16,15.60
2007,04,06,11,17,15.60
2007,04,06,11,18,15.50
2007,04,06,11,19,15.50
2007,04,06,11,20,15.60
2007,04,06,11,21,15.70
2007,04,06,11,22,15.70
2007,04,06,11,23,15.70
2007,04,06,11,24,15.70
2007,04,06,11,25,15.70
2007,04,06,11,26,15.80
2007,04,06,11,27,15.90
2007,04,06,11,28,16.00
2007,04,06,11,29,16.10
2007,04,06,11,30,16.10
2007,04,06,11,31,16.10
2007,04,06,11,32,16.20
2007,04,06,11,33,16.20
2007,04,06,11,34,16.30
2007,04,06,11,35,16.30
2007,04,06,11,36,16.20
2007,04,06,11,37,16.20
2007,04,06,11,38,16.20
2007,04,06,11,39,16.20
2007,04,06,11,40,16.20
2007,04,06,11,41,16.20
2007,04,06,11,42,16.20
2007,04,06,11,43,16.20
2007,04,06,11,44,16.30
2007,04,06,11,45,16.30
2007,04,06,11,46,16.40
2007,04,06,11,47,16.40
2007,04,06,11,48,16.40
2007,04,06,11,49,16.60
2007,04,06,11,50,16.70
2007,04,06,11,51,16.70
2007,04,06,11,52,16.70
2007,04,06,11,53,16.70
2007,04,06,11,54,16.80
2007,04,06,11,55,16.90
2007,04,06,11,56,16.90
2007,04,06,11,57,16.90
2007,04,06,11,58,16.90
2007,04,06,11,59,16.80
2007,04,06,12,00,16.70
2007,04,06,12,01,16.70
2007,04,06,12,02,16.70
2007,04,06,12,03,16.80
2007,04,06,12,04,16.90
2007,04,06,12,05,16.90
2007,04,06,12,06,17.00
2007,04,06,12,07,17.10
2007,04,06,12,08,17.10
2007,04,06,12,09,17.10
2007,04,06,12,10,17.20
2007,04,06,12,11,17.30
2007,04,06,12,12,17.30
2007,04,06,12,13,17.40
2007,04,06,12,14,17.50
2007,04,06,12,15,17.50
2007,04,06,12,16,17.60
2007,04,06,12,17,17.60
2007,04,06,12,18,17.60
2007,04,06,12,19,17.70
2007,04,06,12,20,17.70
2007,04,06,12,21,17.90
2007,04,06,12,22,17.90
2007,04,06,12,23,18.10
2007,04,06,12,24,18.20
2007,04,06,12,25,18.30
2007,04,06,12,26,18.20
2007,04,06,12,27,18.30
2007,04,06,12,28,18.30
2007,04,06,12,29,18.30
2007,04,06,12,30,18.30
2007,04,06,12,31,18.30
2007,04,06,12,32,18.20
2007,04,06,12,33,18.20
2007,04,06,12,34,18.20
2007,04,06,12,35,18.20
2007,04,06,12,36,18.20
2007,04,06,12,37,18.20
2007,04,06,12,38,18.10
2007,04,06,12,39,18.10
2007,04,06,12,40,18.10
2007,04,06,12,41,18.20
2007,04,06,12,42,18.20
2007,04,06,12,43,18.20
2007,04,06,12,44,18.10
2007,04,06,12,45,17.90
2007,04,06,12,46,17.90
2007,04,06,12,47,17.90
2007,04,06,12,48,17.90
2007,04,06,12,49,18.00
2007,04,06,12,50,18.10
2007,04,06,12,51,18.20
2007,04,06,12,52,18.20
2007,04,06,12,53,18.30
2007,04,06,12,54,18.40
2007,04,06,12,55,18.40
2007,04,06,12,56,18.50
2007,04,06,12,57,18.60
2007,04,06,12,58,18.50
2007,04,06,12,59,18.60
2007,04,06,13,00,18.70
2007,04,06,13,01,18.70
2007,04,06,13,02,18.60
2007,04,06,13,03,18.60
2007,04,06,13,04,18.60
2007,04,06,13,05,18.60
2007,04,06,13,06,18.60
2007,04,06,13,07,18.60
2007,04,06,13,08,18.60
2007,04,06,13,09,18.60
2007,04,06,13,10,18.60
2007,04,06,13,11,18.60
2007,04,06,13,12,18.60
2007,04,06,13,13,18.60
2007,04,06,13,14,18.60
2007,04,06,13,15,18.60
2007,04,06,13,16,18.60
2007,04,06,13,17,18.60
2007,04,06,13,18,18.70
2007,04,06,13,19,18.70
2007,04,06,13,20,18.60
2007,04,06,13,21,18.60
2007,04,06,13,22,18.50
2007,04,06,13,23,18.50
2007,04,06,13,24,18.40
2007,04,06,13,25,18.40
2007,04,06,13,26,18.40
2007,04,06,13,27,18.40
2007,04,06,13,28,18.40
2007,04,06,13,29,18.30
2007,04,06,13,30,18.30
2007,04,06,13,31,18.30
2007,04,06,13,32,18.30
2007,04,06,13,33,18.30
2007,04,06,13,34,18.30
2007,04,06,13,35,18.30
2007,04,06,13,36,18.40
2007,04,06,13,37,18.50
2007,04,06,13,38,18.50
2007,04,06,13,39,18.40
2007,04,06,13,40,18.40
2007,04,06,13,41,18.40
2007,04,06,13,42,18.50
2007,04,06,13,43,18.50
2007,04,06,13,44,18.60
2007,04,06,13,45,18.60
2007,04,06,13,46,18.70
2007,04,06,13,47,18.70
2007,04,06,13,48,18.80
2007,04,06,13,49,18.90
2007,04,06,13,50,18.80
2007,04,06,13,51,18.90
2007,04,06,13,52,18.90
2007,04,06,13,53,18.90
2007,04,06,13,54,18.90
2007,04,06,13,55,19.00
2007,04,06,13,56,19.10
2007,04,06,13,57,19.10
2007,04,06,13,58,19.10
2007,04,06,13,59,19.10
2007,04,06,14,00,19.10
2007,04,06,14,01,19.10
2007,04,06,14,02,19.10
2007,04,06,14,03,19.10
2007,04,06,14,04,19.20
2007,04,06,14,05,19.20
2007,04,06,14,06,19.30
2007,04,06,14,07,19.30
2007,04,06,14,08,19.40
2007,04,06,14,09,19.40
2007,04,06,14,10,19.50
2007,04,06,14,11,19.50
2007,04,06,14,12,19.40
2007,04,06,14,13,19.20
2007,04,06,14,14,19.00
2007,04,06,14,15,18.70
2007,04,06,14,16,18.60
2007,04,06,14,17,18.40
2007,04,06,14,18,18.10
2007,04,06,14,19,17.90
2007,04,06,14,20,17.50
2007,04,06,14,21,17.20
2007,04,06,14,22,17.00
2007,04,06,14,23,16.90
2007,04,06,14,24,16.70
2007,04,06,14,25,16.60
2007,04,06,14,26,16.60
2007,04,06,14,27,16.50
2007,04,06,14,28,16.40
2007,04,06,14,29,16.30
2007,04,06,14,30,16.10
2007,04,06,14,31,16.10
2007,04,06,14,32,15.90
2007,04,06,14,33,15.90
2007,04,06,14,34,15.90
2007,04,06,14,35,16.00
2007,04,06,14,36,16.10
2007,04,06,14,37,16.20
2007,04,06,14,38,16.30
2007,04,06,14,39,16.40
2007,04,06,14,40,16.60
2007,04,06,14,41,16.70
2007,04,06,14,42,16.80
2007,04,06,14,43,16.80
2007,04,06,14,44,16.90
2007,04,06,14,45,16.90
2007,04,06,14,46,16.90
2007,04,06,14,47,16.80
2007,04,06,14,48,16.70
2007,04,06,14,49,16.70
2007,04,06,14,50,16.70
2007,04,06,14,51,16.80
2007,04,06,14,52,16.80
2007,04,06,14,53,16.90
2007,04,06,14,54,17.00
2007,04,06,14,55,17.10
2007,04,06,14,56,17.20
2007,04,06,14,57,17.30
2007,04,06,14,58,17.40
2007,04,06,14,59,17.50
2007,04,06,15,00,17.70
2007,04,06,15,01,17.70
2007,04,06,15,02,17.70
2007,04,06,15,03,17.60
2007,04,06,15,04,17.50
2007,04,06,15,05,17.30
2007,04,06,15,06,17.20
2007,04,06,15,07,17.00
2007,04,06,15,08,16.90
2007,04,06,15,09,16.90
2007,04,06,15,10,16.80
2007,04,06,15,11,16.70
2007,04,06,15,12,16.60
2007,04,06,15,13,16.60
2007,04,06,15,14,16.60
2007,04,06,15,15,16.60
2007,04,06,15,16,16.70
2007,04,06,15,17,16.70
2007,04,06,15,18,16.70
2007,04,06,15,19,16.70
2007,04,06,15,20,16.80
2007,04,06,15,21,16.80
2007,04,06,15,22,16.80
2007,04,06,15,23,16.80
2007,04,06,15,24,16.70
2007,04,06,15,25,16.70
2007,04,06,15,26,16.70
2007,04,06,15,27,16.70
2007,04,06,15,28,16.80
2007,04,06,15,29,16.70
2007,04,06,15,30,16.70
2007,04,06,15,31,16.70
2007,04,06,15,32,16.50
2007,04,06,15,33,16.30
2007,04,06,15,34,16.20
2007,04,06,15,35,16.10
2007,04,06,15,36,16.00
2007,04,06,15,37,15.90
2007,04,06,15,38,15.80
2007,04,06,15,39,15.90
2007,04,06,15,40,15.90
2007,04,06,15,41,15.80
2007,04,06,15,42,15.80
2007,04,06,15,43,15.70
2007,04,06,15,44,15.60
2007,04,06,15,45,15.50
2007,04,06,15,46,15.60
2007,04,06,15,47,15.60
2007,04,06,15,48,15.70
2007,04,06,15,49,15.80
2007,04,06,15,50,15.80
2007,04,06,15,51,15.90
2007,04,06,15,52,16.00
2007,04,06,15,53,16.10
2007,04,06,15,54,16.20
2007,04,06,15,55,16.40
2007,04,06,15,56,16.60
2007,04,06,15,57,16.70
2007,04,06,15,58,16.90
2007,04,06,15,59,17.10
2007,04,06,16,00,17.30
2007,04,06,16,01,17.50
2007,04,06,16,02,17.70
2007,04,06,16,03,17.90
2007,04,06,16,04,17.90
2007,04,06,16,05,17.90
2007,04,06,16,06,17.90
2007,04,06,16,07,17.90
2007,04,06,16,08,17.90
2007,04,06,16,09,17.80
2007,04,06,16,10,17.70
2007,04,06,16,11,17.70
2007,04,06,16,12,17.70
2007,04,06,16,13,17.80
2007,04,06,16,14,17.80
2007,04,06,16,15,17.80
2007,04,06,16,16,17.90
2007,04,06,16,17,17.80
2007,04,06,16,18,17.70
2007,04,06,16,19,17.40
2007,04,06,16,20,17.00
2007,04,06,16,21,16.80
2007,04,06,16,22,16.70
2007,04,06,16,23,16.60
2007,04,06,16,24,16.60
2007,04,06,16,25,16.40
2007,04,06,16,26,16.40
2007,04,06,16,27,16.40
2007,04,06,16,28,16.40
2007,04,06,16,29,16.40
2007,04,06,16,30,16.30
2007,04,06,16,31,16.30
2007,04,06,16,32,16.20
2007,04,06,16,33,16.10
2007,04,06,16,34,16.10
2007,04,06,16,35,16.10
2007,04,06,16,36,16.10
2007,04,06,16,37,16.10
2007,04,06,16,38,16.10
2007,04,06,16,39,16.10
2007,04,06,16,40,16.20
2007,04,06,16,41,16.20
2007,04,06,16,42,16.10
2007,04,06,16,43,16.10
2007,04,06,16,44,16.10
2007,04,06,16,45,16.10
2007,04,06,16,46,16.10
2007,04,06,16,47,16.10
2007,04,06,16,48,16.10
2007,04,06,16,49,16.10
2007,04,06,16,50,16.10
2007,04,06,16,51,16.10
2007,04,06,16,52,16.20
2007,04,06,16,53,16.10
2007,04,06,16,54,16.10
2007,04,06,16,55,16.10
2007,04,06,16,56,16.10
2007,04,06,16,57,16.10
2007,04,06,16,58,16.10
2007,04,06,16,59,16.10
2007,04,06,17,00,16.10
2007,04,06,17,01,16.10
2007,04,06,17,02,16.10
2007,04,06,17,03,16.20
2007,04,06,17,04,16.30
2007,04,06,17,05,16.30
2007,04,06,17,06,16.40
2007,04,06,17,07,16.40
2007,04,06,17,08,16.60
2007,04,06,17,09,16.60
2007,04,06,17,10,16.70
2007,04,06,17,11,16.70
2007,04,06,17,12,16.70
2007,04,06,17,13,16.70
2007,04,06,17,14,16.70
2007,04,06,17,15,16.70
2007,04,06,17,16,16.80
2007,04,06,17,17,16.80
2007,04,06,17,18,16.90
2007,04,06,17,19,17.00